Саутист-Гринсборо

США     35°56′31″N   79°41′07″W
темп.,
°C
ветер,
м/с
пор.,
м/с
влажн.,
%
обл.,
%
осадки,
мм/ч
давл.,
гПа
погр.,
м
15 мая, сб
сб1523:00+11сз22595 0.0 102512
02:00+9св11735 0.0 102510
05:00+8зсз11685 0.0 102610
08:00+13зсз23620 0.0 1027144
11:00+20з344183 0.0 10261882
14:00+23зюз342958 0.0 10242955
17:00+23ююз242811 0.0 10222697
20:00+16ю2261100 0.0 102313
16 мая, вс
вс1623:00+14ююз2250100 0.0 102411
02:00+12ююз1157100 0.0 102311
05:00+10юз1265100 0.0 102413
08:00+14зсз1360100 0.0 102585
11:00+17ссз1161100 0.0 1025148
14:00+17всв1264100 0.0 1024247
17:00+14св2383100 0.2 102372
20:00+14сз1183100 0.2 102315
17 мая, пн
пн1723:00+14ссв118258 0.1 102410
02:00+13с228434 0.1 102329
05:00+12св1290100 0.0 102442
08:00+12всв239472 0.4 1025103
11:00+15всв2278100 0.0 1025356
14:00+15ссз1281100 0.1 1025190
17:00+15с1188100 0.4 102497
20:00+14св2295100 1.1 102545
18 мая, вт
вт1823:00+13ссв249787 0.1 102681
02:00+13св129599 0.1 102633
05:00+13св259797 0.0 1026137
08:00+14в249597 0.0 1027187
11:00+17в2380100 0.0 1028529
14:00+23ююв1155100 0.0 10261319
17:00+21вюв2271100 0.5 1025437
20:00+18в0077100 0.8 102611
19 мая, ср
ср1923:00+15ссз008368 0.0 102611
02:00+16вюв2280100 0.0 102740
05:00+13ююв228356 0.0 102721
08:00+16ю117941 0.0 1029129
11:00+23ююв115292 0.0 10291006
14:00+25вюв334025 0.0 10281914
17:00+25в233757 0.0 10271898
20:00+19вюв236658 0.0 102734